Rbgn^[z[y[W
メイン
   新天体発見情報
     Comet C/2006 B1 (McNaught)
投稿するにはまず登録を

スレッド表示 | 古いものから 前のトピック | 次のトピック | 下へ
投稿者 スレッド
佐藤裕久
投稿日時: 2006-1-31 22:47
モデレータ
登録日: 2005-6-12
居住地: 日本
投稿: 2703
オンライン
Comet C/2006 B1 (McNaught)

R. H. McNaughtは、1月27.62日 UT、Siding Springサーベイの0.5-m Uppsala Schmidt
望遠鏡によるCCDイメージより、少し拡散状の彗星を発見したと通報した。
1月27.6日UTの若干のイメージから約8″のコマが西に及ぶことを示唆した。

発見位置は次のとおり、

     2006 UT             R.A. (2000) Decl.       Mag.
     Jan. 27.62223   13 08 10.75   -39 23 36.2   18.3

軌道要素と位置推算表は次のとおり、

Orbital elements:
    C/2006 B1 (McNaught)
T 2005 Nov. 3.5895 TT                                   MPC
q   2.966190             (2000.0)            P               Q
                   Peri.  298.1929      -0.6435853      -0.7304272
                   Node   161.4106      -0.1444796      +0.4092950
e   1.0            Incl.  134.1754      -0.7516140      +0.5467666
From 28 observations 2006 Jan. 27-30.

Ephemeris:
    C/2006 B1 (McNaught)           [Mag. = 12.0 + 5 log Delta + 8 log r]
Date    TT    R. A. (2000) Decl.     Delta      r     Elong.  Phase  Mag.
2006 01 25    13 11.66   -39 35.8    2.885    3.078    91.8    18.6  18.2
2006 02 04    12 56.90   -38 37.9    2.723    3.105   103.6    18.0  18.1
2006 02 14    12 38.30   -37 01.9    2.575    3.136   116.0    16.4  18.0
2006 02 24    12 16.53   -34 36.6    2.454    3.169   128.8    14.1  18.0
2006 03 06    11 52.94   -31 15.2    2.371    3.205   141.2    11.2  17.9
2006 03 16    11 29.42   -27 01.9    2.338    3.243   150.9     8.6  17.9
2006 03 26    11 07.78   -22 13.7    2.361    3.284   153.4     7.8  18.0
2006 04 05    10 49.33   -17 15.4    2.442    3.327   147.2     9.4  18.1
2006 04 15    10 34.64   -12 30.9    2.573    3.372   136.5    11.8  18.3

Computer: Green

(IAUC 8665、MPEC 2006-B86)
スレッド表示 | 古いものから 前のトピック | 次のトピック | トップ

投稿するにはまず登録を
 
© 1999 Tsutomu Seki.